[[{"header":{"parameterUnit":"m.s-1","parameterCategory":1,"la1":30.2991,"la2":30.254,"lo1":-89.0895,"lo2":-89.0444,"dy":0.0017,"dx":0.0017,"nx":28,"ny":28,"refTime":"2024-03-10T09:00:00:Z","depth":0,"parameterNumber":2,"parameterNumberName":"U-component_of_WINDS"},"data":[0,0,0,0,0,0,0,0,0,0,0,0,0,0,0,0,0,0,0,0,0,0,0,0,0,0,0,0,0,0,0,0,0,0,0,0,0,0,0,0,0,0,0,0,0,0,0,0,0,0,0,0,0,0,0,0,0,0,0.8375,0.8375,0,0.8413,0.8414,0.8414,0.843,0.843,0.843,0.843,0.847,0.8471,0.8472,0,0,0,0,0,0,0,0,0,0,0,0,0,0.8317,0.8318,0.8375,0.8375,0.8376,0.8413,0.8414,0.8414,0.843,0.843,0.843,0.843,0.847,0.8471,0.8472,0,0,0,0,0,0,0,0,0,0,0,0,0,0.8347,0.8318,0.8374,0.8388,0.839,0.8413,0.8414,0.8414,0.843,0.843,0.843,0.843,0.8469,0.8471,0.8473,0.8485,0,0,0.8478,0.8479,0,0,0,0,0,0,0,0,0.8346,0.8349,0.8386,0.8387,0.8389,0.8417,0.8408,0.8438,0.843,0.8415,0.843,0.843,0.8453,0.8456,0.8463,0.8487,0.8489,0.8478,0.8479,0.848,0.848,0,0,0,0,0,0,0,0.8343,0.8348,0.839,0.8386,0.8388,0.8393,0.8397,0.8414,0.8434,0.8416,0.8418,0.8422,0.8453,0.8461,0.8464,0.849,0.8478,0.8479,0.8481,0.8481,0.8528,0.8528,0,0,0,0,0,0,0.8339,0.8346,0.8389,0.8391,0.8367,0.8394,0.8399,0.8408,0.8434,0.8438,0.8422,0.8422,0.8459,0.8462,0.8466,0.8483,0.848,0.8481,0.8482,0.8527,0.8528,0.8528,0,0,0,0,0,0,0.8338,0.8342,0.8387,0.8369,0.8375,0.8395,0.8405,0.8409,0.8417,0.8438,0.8442,0.8426,0.8459,0.8463,0.8481,0.8485,0.8482,0.8484,0.8527,0.8528,0.8528,0.8517,0,0,0,0,0,0,0.8336,0.8342,0.8346,0.8369,0.8376,0.8401,0.8406,0.841,0.842,0.8421,0.8443,0.8447,0.8459,0.8478,0.8482,0.8487,0.8485,0.8527,0.8527,0.8528,0.8517,0.8517,0.8517,0,0,0,0,0,0.8334,0.8342,0.8347,0.8352,0.8382,0.8401,0.8405,0.8419,0.842,0.8425,0.8439,0.8446,0.8484,0.848,0.8485,0.849,0.8527,0.8527,0.8528,0.8517,0.8517,0.8517,0,0,0,0,0,0,0.8319,0.8345,0.835,0.8366,0.8381,0.8404,0.841,0.8418,0.8433,0.8434,0.845,0.8455,0.8472,0.8483,0.8478,0.8504,0.8506,0.8507,0.8496,0.8496,0.8496,0.8493,0.8486,0,0,0,0,0,0.8318,0.8331,0.8353,0.8364,0.8372,0.839,0.8399,0.8408,0.8425,0.8431,0.8446,0.8462,0.8478,0.8488,0.8503,0.8519,0.8525,0.8526,0.8525,0.8525,0.8526,0.8537,0.8537,0.853,0.853,0.853,0,0,0.8315,0.8331,0.8338,0.8362,0.8375,0.8389,0.8395,0.8409,0.842,0.8433,0.8451,0.8463,0.8482,0.8499,0.8507,0.8509,0.853,0.8526,0.8525,0.8527,0.8537,0.8538,0.8539,0.853,0.853,0.853,0,0,0.8317,0.833,0.8341,0.8354,0.8374,0.8386,0.8389,0.8411,0.8419,0.8437,0.8448,0.8461,0.8487,0.8501,0.8511,0.852,0.8528,0.8525,0.8524,0.8534,0.8535,0.8535,0.8539,0.854,0.8526,0.8526,0.8526,0,0.8311,0.8332,0.8346,0.836,0.8371,0.8384,0.8397,0.8409,0.8432,0.844,0.8441,0.8475,0.8489,0.851,0.8512,0.852,0.8524,0.8522,0.8533,0.8534,0.8535,0.8539,0.854,0.8525,0.8525,0.8525,0.8526,0,0.8324,0.8338,0.8345,0.8368,0.838,0.8392,0.841,0.842,0.8429,0.8441,0.846,0.8477,0.8497,0.8503,0.8511,0.8525,0.8526,0.853,0.8532,0.8535,0.8539,0.854,0.8525,0.8525,0.8525,0.8525,0,0,0.8316,0.8348,0.835,0.8362,0.8385,0.8397,0.8411,0.843,0.8439,0.8455,0.8468,0.8491,0.8495,0.8507,0.8517,0.8526,0.8533,0.853,0.853,0.853,0.8551,0.8547,0.8549,0.8538,0.8539,0.8539,0.8549,0,0.8322,0.8347,0.8362,0.8381,0.8395,0.8409,0.8422,0.8438,0.845,0.8464,0.8478,0.8494,0.8499,0.8506,0.8515,0.853,0.8538,0.853,0.8551,0.8552,0.8546,0.8551,0.8547,0.8556,0.8551,0.8551,0.8551,0,0.8331,0.8347,0.8368,0.8391,0.8398,0.8409,0.8428,0.8442,0.8461,0.8469,0.8483,0.8494,0.851,0.8511,0.8535,0.8529,0.8539,0.8548,0.8549,0.8551,0.8551,0.8554,0.8559,0.856,0.8554,0.8554,0.8553,0,0.8324,0.8352,0.8368,0.8377,0.8404,0.8412,0.8423,0.8442,0.8453,0.8471,0.8478,0.8498,0.8508,0.8523,0.8539,0.8538,0.8561,0.8563,0.8569,0.8569,0.8573,0.8572,0.858,0.8579,0.8579,0.8579,0.8579,0,0.8328,0.8341,0.8365,0.8375,0.839,0.8407,0.8422,0.8435,0.8452,0.8465,0.8479,0.8491,0.8512,0.8527,0.854,0.8558,0.8562,0.857,0.8573,0.8569,0.8568,0.8575,0.8575,0.858,0.8579,0.8579,0.8579,0,0.8323,0.834,0.8359,0.8383,0.839,0.84,0.8421,0.8432,0.8445,0.8462,0.8467,0.8489,0.8508,0.8525,0.855,0.8559,0.8577,0.8581,0.8571,0.8572,0.8577,0.8577,0.859,0.8593,0.859,0.859,0.859,0,0.8325,0.8335,0.836,0.837,0.8382,0.8398,0.8409,0.8427,0.8439,0.8462,0.847,0.849,0.8507,0.8537,0.8555,0.8575,0.8579,0.8583,0.8582,0.8578,0.858,0.8579,0.8581,0.8582,0.8582,0.8582,0.8582,0,0.8326,0.8334,0.835,0.8369,0.8383,0.8399,0.8416,0.8423,0.8445,0.8457,0.8477,0.849,0.8516,0.8536,0.8558,0.8571,0.858,0.8582,0.8585,0.858,0.8574,0.8578,0.857,0.8582,0.8582,0.8582,0.8582,0.8582,0.8324,0.8334,0.8354,0.8372,0.8387,0.8402,0.8414,0.8429,0.8446,0.8468,0.8478,0.8498,0.8518,0.8549,0.8562,0.8578,0.858,0.8584,0.8585,0.8585,0.8585,0.8571,0.8582,0.8582,0.8582,0.8583,0.8583,0,0.8327,0.834,0.8357,0.838,0.8394,0.8402,0.8421,0.8433,0.845,0.8468,0.8485,0.8508,0.8528,0.8548,0.8569,0.8579,0.8584,0.8584,0.8583,0.8586,0.8581,0.8577,0.8579,0.8579,0.8579,0.8579,0.8579,0.8579,0.8329,0.8347,0.8358,0.8383,0.8397,0.8417,0.8427,0.8442,0.8457,0.8482,0.8498,0.8511,0.8531,0.8554,0.8573,0.8578,0.8585,0.8584,0.8591,0.8586,0.8586,0.8586,0.8583,0.8586,0.8586,0.8594,0.8594,0.8594]},{"header":{"parameterUnit":"m.s-1","parameterCategory":1,"la1":30.2991,"la2":30.254,"lo1":-89.0895,"lo2":-89.0444,"dy":0.0017,"dx":0.0017,"nx":28,"ny":28,"refTime":"2024-03-10T09:00:00:Z","depth":0,"parameterNumber":3,"parameterNumberName":"V-component_of_WINDS"},"data":[0,0,0,0,0,0,0,0,0,0,0,0,0,0,0,0,0,0,0,0,0,0,0,0,0,0,0,0,0,0,0,0,0,0,0,0,0,0,0,0,0,0,0,0,0,0,0,0,0,0,0,0,0,0,0,0,0,0,-3.9868,-3.9868,0,-3.9891,-3.9891,-3.9891,-3.9893,-3.9893,-3.9892,-3.9892,-3.9912,-3.9913,-3.9914,0,0,0,0,0,0,0,0,0,0,0,0,0,-3.9824,-3.9825,-3.9868,-3.9868,-3.9868,-3.9891,-3.9891,-3.9891,-3.9893,-3.9893,-3.9892,-3.9892,-3.9912,-3.9913,-3.9914,0,0,0,0,0,0,0,0,0,0,0,0,0,-3.9844,-3.9825,-3.9868,-3.9872,-3.9873,-3.9891,-3.9891,-3.9892,-3.9893,-3.9893,-3.9892,-3.9892,-3.9912,-3.9913,-3.9914,-3.9928,0,0,-3.9917,-3.9918,0,0,0,0,0,0,0,0,-3.9843,-3.9846,-3.9871,-3.9872,-3.9872,-3.9889,-3.9883,-3.9904,-3.9893,-3.9885,-3.9892,-3.9892,-3.9904,-3.9906,-3.9911,-3.9929,-3.993,-3.9918,-3.9918,-3.9919,-3.9919,0,0,0,0,0,0,0,-3.9842,-3.9845,-3.9877,-3.9871,-3.9872,-3.9872,-3.9875,-3.9887,-3.9896,-3.9886,-3.9886,-3.9889,-3.9905,-3.991,-3.9912,-3.9931,-3.9917,-3.9918,-3.9919,-3.992,-3.9964,-3.9965,0,0,0,0,0,0,-3.984,-3.9844,-3.9876,-3.9878,-3.9857,-3.9873,-3.9876,-3.9884,-3.9896,-3.9898,-3.9889,-3.9889,-3.9908,-3.991,-3.9912,-3.9932,-3.9919,-3.992,-3.992,-3.9964,-3.9965,-3.9965,0,0,0,0,0,0,-3.9839,-3.9843,-3.9875,-3.9861,-3.9865,-3.9874,-3.9883,-3.9884,-3.989,-3.9899,-3.99,-3.9893,-3.9908,-3.9911,-3.9925,-3.9933,-3.992,-3.9921,-3.9963,-3.9964,-3.9965,-3.997,0,0,0,0,0,0,-3.9838,-3.9842,-3.9848,-3.9861,-3.9866,-3.9888,-3.9883,-3.9885,-3.9892,-3.9892,-3.9903,-3.9904,-3.9908,-3.9924,-3.9926,-3.9934,-3.9922,-3.9963,-3.9964,-3.9965,-3.997,-3.9971,-3.9973,0,0,0,0,0,-3.9836,-3.9847,-3.9848,-3.9852,-3.9873,-3.9889,-3.9891,-3.9896,-3.9893,-3.9899,-3.9905,-3.9904,-3.9931,-3.9925,-3.9928,-3.9936,-3.9962,-3.9963,-3.9965,-3.9969,-3.9971,-3.9973,0,0,0,0,0,0,-3.9833,-3.9849,-3.985,-3.9866,-3.9876,-3.9889,-3.9896,-3.9898,-3.9908,-3.9907,-3.9912,-3.9914,-3.9929,-3.9934,-3.9927,-3.9952,-3.9946,-3.9948,-3.9949,-3.9951,-3.9952,-3.9951,-3.9923,0,0,0,0,0,-3.9835,-3.9847,-3.986,-3.9872,-3.9878,-3.9886,-3.9893,-3.9896,-3.9906,-3.991,-3.9917,-3.9926,-3.9937,-3.9944,-3.9954,-3.997,-3.9974,-3.9978,-3.9979,-3.998,-3.9982,-3.9993,-3.9996,-3.9969,-3.9969,-3.9969,0,0,-3.9837,-3.9848,-3.9854,-3.9872,-3.988,-3.9893,-3.989,-3.9902,-3.9911,-3.9911,-3.9927,-3.9932,-3.9943,-3.9959,-3.9966,-3.9963,-3.999,-3.9982,-3.9983,-3.9984,-3.9994,-3.9997,-3.9999,-3.997,-3.9969,-3.9969,0,0,-3.9849,-3.9857,-3.987,-3.9879,-3.9893,-3.9899,-3.9902,-3.9915,-3.9919,-3.9935,-3.9936,-3.9947,-3.9965,-3.9973,-3.998,-3.9997,-3.9997,-4.0,-4.0009,-4.0019,-4.0021,-4.0023,-4.0031,-4.0034,-4.0002,-4.0002,-4.0002,0,-3.985,-3.9869,-3.9876,-3.989,-3.9898,-3.9901,-3.9915,-3.9923,-3.9938,-3.9944,-3.9941,-3.9965,-3.9972,-3.9991,-3.9996,-4.0001,-4.0005,-3.9999,-4.0021,-4.0023,-4.0024,-4.0032,-4.0035,-4.0002,-4.0002,-4.0002,-4.0002,0,-3.9871,-3.9885,-3.9893,-3.9911,-3.992,-3.9933,-3.9942,-3.995,-3.9954,-3.996,-3.9977,-3.9986,-3.9999,-4.0004,-4.0006,-4.0024,-4.0022,-4.002,-4.0014,-4.0027,-4.0035,-4.0037,-4.0003,-4.0003,-4.0003,-4.0003,0,0,-3.9879,-3.9903,-3.9906,-3.9915,-3.9931,-3.9942,-3.9956,-3.9971,-3.9978,-3.9989,-4.0002,-4.0018,-4.0017,-4.0025,-4.0028,-4.0037,-4.0053,-4.0034,-4.0034,-4.0038,-4.0075,-4.0078,-4.0081,-4.0053,-4.0054,-4.0054,-4.0075,0,-3.9893,-3.992,-3.9928,-3.995,-3.9963,-3.9968,-3.998,-3.9992,-3.9999,-4.0011,-4.0018,-4.003,-4.0027,-4.0032,-4.0042,-4.0049,-4.0061,-4.0048,-4.0065,-4.0065,-4.0063,-4.0084,-4.0086,-4.0105,-4.0078,-4.0078,-4.0078,0,-3.9913,-3.9927,-3.9951,-3.9969,-3.9974,-3.9986,-4.0001,-4.0013,-4.0026,-4.0031,-4.0041,-4.0044,-4.0059,-4.0052,-4.0074,-4.0065,-4.0072,-4.0077,-4.0078,-4.008,-4.0073,-4.0088,-4.0111,-4.0115,-4.0083,-4.0082,-4.0082,0,-3.9918,-3.9943,-3.9962,-3.9969,-3.9989,-3.9997,-4.0006,-4.0019,-4.0029,-4.0042,-4.0048,-4.0062,-4.007,-4.0081,-4.0088,-4.0083,-4.011,-4.0103,-4.0114,-4.0114,-4.012,-4.0119,-4.0145,-4.0123,-4.0123,-4.0123,-4.0123,0,-3.9934,-3.9948,-3.9965,-3.9976,-3.9994,-4.0003,-4.0019,-4.0028,-4.004,-4.0053,-4.0057,-4.0069,-4.0078,-4.0091,-4.0097,-4.0114,-4.0117,-4.0122,-4.0123,-4.0122,-4.0122,-4.0127,-4.0126,-4.0124,-4.0124,-4.0123,-4.0123,0,-3.9942,-3.9954,-3.9975,-3.9993,-3.9999,-4.0011,-4.0026,-4.0038,-4.0046,-4.0063,-4.0067,-4.0079,-4.0095,-4.0104,-4.0123,-4.0127,-4.0147,-4.0147,-4.0143,-4.0144,-4.0155,-4.0155,-4.0186,-4.0192,-4.0165,-4.0165,-4.0165,0,-3.9951,-3.9963,-3.9985,-3.9995,-4.0005,-4.002,-4.0031,-4.0041,-4.0052,-4.007,-4.0079,-4.0096,-4.011,-4.0135,-4.0145,-4.0161,-4.0162,-4.0172,-4.0164,-4.0163,-4.0164,-4.0163,-4.0165,-4.0174,-4.0174,-4.0174,-4.0174,0,-3.9967,-3.9973,-3.9989,-4.0008,-4.0021,-4.0036,-4.005,-4.0058,-4.007,-4.0082,-4.01,-4.0111,-4.0133,-4.015,-4.0167,-4.0175,-4.0177,-4.0177,-4.018,-4.018,-4.0177,-4.018,-4.0148,-4.0176,-4.0176,-4.0176,-4.0176,-4.0175,-3.9977,-3.9989,-4.0007,-4.0025,-4.0038,-4.0052,-4.0065,-4.0076,-4.0091,-4.0111,-4.0116,-4.0135,-4.015,-4.0173,-4.0182,-4.0197,-4.0195,-4.02,-4.0201,-4.0202,-4.0204,-4.0175,-4.02,-4.02,-4.02,-4.02,-4.02,0,-3.9994,-4.0006,-4.0023,-4.0045,-4.006,-4.0063,-4.008,-4.0092,-4.0109,-4.0124,-4.0139,-4.016,-4.0178,-4.019,-4.0208,-4.0218,-4.0219,-4.0222,-4.0222,-4.0224,-4.0204,-4.02,-4.0221,-4.0221,-4.0221,-4.0221,-4.0221,-4.0221,-4.0004,-4.0026,-4.0034,-4.0063,-4.0075,-4.0095,-4.0105,-4.0119,-4.0131,-4.0156,-4.0171,-4.018,-4.0194,-4.0214,-4.023,-4.0233,-4.024,-4.0243,-4.0246,-4.0227,-4.0225,-4.0223,-4.0219,-4.0244,-4.0244,-4.0265,-4.0265,-4.0266]}]]